[[{"header":{"parameterUnit":"m.s-1","parameterCategory":1,"la1":30.2991,"la2":30.254,"lo1":-89.0895,"lo2":-89.0444,"dy":0.0017,"dx":0.0017,"nx":28,"ny":28,"refTime":"2025-02-28T09:00:00:Z","depth":0,"parameterNumber":2,"parameterNumberName":"U-component_of_WINDS"},"data":[0,0,0,0,0,0,0,0,0,0,0,0,0,0,0,0,0,0,0,0,0,0,0,0,0,0,0,0,0,0,0,0,0,0,0,0,0,0,0,0,0,0,0,0,0,0,0,0,0,0,0,0,0,0,0,0,0,0,0.2775,0.2775,0,0.2763,0.2763,0.2763,0.2759,0.2759,0.2759,0.2759,0.2746,0.2746,0.2745,0,0,0,0,0,0,0,0,0,0,0,0,0,0.2792,0.2792,0.2775,0.2775,0.2774,0.2763,0.2763,0.2763,0.2759,0.2759,0.2759,0.2759,0.2746,0.2746,0.2745,0,0,0,0,0,0,0,0,0,0,0,0,0,0.2783,0.2792,0.2775,0.2771,0.2771,0.2763,0.2763,0.2763,0.2759,0.2759,0.2759,0.2759,0.2746,0.2746,0.2745,0.274,0,0,0.2743,0.2743,0,0,0,0,0,0,0,0,0.2784,0.2783,0.2772,0.2771,0.2771,0.2763,0.2765,0.2755,0.2759,0.2763,0.2759,0.2759,0.2751,0.275,0.2748,0.274,0.2739,0.2743,0.2743,0.2743,0.2743,0,0,0,0,0,0,0,0.2784,0.2783,0.277,0.2772,0.2771,0.277,0.2769,0.2763,0.2757,0.2763,0.2763,0.2761,0.2751,0.2749,0.2748,0.2739,0.2743,0.2743,0.2742,0.2742,0.2727,0.2727,0,0,0,0,0,0,0.2786,0.2784,0.277,0.277,0.2778,0.2769,0.2768,0.2765,0.2757,0.2756,0.2761,0.2761,0.275,0.2748,0.2747,0.2741,0.2743,0.2742,0.2742,0.2727,0.2727,0.2727,0,0,0,0,0,0,0.2786,0.2785,0.2771,0.2777,0.2775,0.2769,0.2766,0.2765,0.2762,0.2756,0.2755,0.276,0.275,0.2748,0.2742,0.2741,0.2742,0.2741,0.2727,0.2727,0.2727,0.273,0,0,0,0,0,0,0.2787,0.2785,0.2783,0.2777,0.2774,0.2766,0.2766,0.2765,0.2761,0.2761,0.2754,0.2753,0.275,0.2743,0.2742,0.274,0.2741,0.2727,0.2727,0.2727,0.273,0.273,0.273,0,0,0,0,0,0.2787,0.2784,0.2783,0.2781,0.2772,0.2766,0.2765,0.2761,0.2761,0.2759,0.2756,0.2753,0.2741,0.2743,0.2741,0.2739,0.2727,0.2727,0.2727,0.273,0.273,0.273,0,0,0,0,0,0,0.2789,0.2783,0.2782,0.2776,0.2772,0.2766,0.2763,0.2761,0.2757,0.2756,0.2752,0.275,0.2745,0.2741,0.2743,0.2734,0.2734,0.2734,0.2737,0.2737,0.2737,0.2738,0.274,0,0,0,0,0,0.2789,0.2785,0.278,0.2775,0.2773,0.2769,0.2766,0.2763,0.2759,0.2757,0.2752,0.2747,0.2743,0.274,0.2735,0.2729,0.2728,0.2727,0.2727,0.2727,0.2727,0.2724,0.2724,0.2726,0.2726,0.2726,0,0,0.2789,0.2785,0.2782,0.2776,0.2772,0.2768,0.2767,0.2763,0.276,0.2756,0.275,0.2747,0.2741,0.2736,0.2733,0.2733,0.2726,0.2727,0.2727,0.2727,0.2724,0.2724,0.2724,0.2726,0.2726,0.2726,0,0,0.2786,0.2782,0.2779,0.2775,0.277,0.2767,0.2767,0.2761,0.2759,0.2753,0.2751,0.2747,0.2738,0.2735,0.2732,0.2729,0.2727,0.2727,0.2727,0.2725,0.2725,0.2724,0.2724,0.2723,0.2727,0.2727,0.2727,0,0.2786,0.278,0.2777,0.2773,0.277,0.2767,0.2764,0.276,0.2754,0.2752,0.2752,0.2742,0.2738,0.2732,0.2731,0.2729,0.2728,0.2728,0.2725,0.2725,0.2724,0.2724,0.2723,0.2727,0.2727,0.2727,0.2727,0,0.278,0.2776,0.2774,0.2768,0.2765,0.2761,0.2758,0.2755,0.2753,0.275,0.2745,0.274,0.2735,0.2733,0.2731,0.2727,0.2727,0.2726,0.2725,0.2724,0.2724,0.2723,0.2727,0.2727,0.2727,0.2727,0,0,0.2778,0.2771,0.2771,0.2768,0.2763,0.276,0.2756,0.2751,0.2749,0.2745,0.2741,0.2735,0.2734,0.2731,0.2729,0.2726,0.2725,0.2726,0.2726,0.2726,0.2721,0.2722,0.2721,0.2724,0.2724,0.2723,0.2721,0,0.2774,0.2768,0.2765,0.276,0.2756,0.2754,0.2751,0.2747,0.2745,0.2741,0.2738,0.2734,0.2733,0.2731,0.2729,0.2725,0.2724,0.2726,0.2721,0.272,0.2722,0.2721,0.2721,0.2719,0.2721,0.2721,0.2721,0,0.2769,0.2766,0.276,0.2756,0.2755,0.2752,0.2748,0.2744,0.274,0.2739,0.2735,0.2733,0.2729,0.2729,0.2724,0.2725,0.2723,0.2721,0.2721,0.272,0.272,0.272,0.2719,0.2719,0.272,0.272,0.272,0,0.2769,0.2762,0.2759,0.2757,0.2752,0.275,0.2747,0.2743,0.2741,0.2737,0.2736,0.2731,0.2729,0.2726,0.2723,0.2723,0.2718,0.2717,0.2716,0.2716,0.2715,0.2715,0.2713,0.2713,0.2713,0.2714,0.2714,0,0.2765,0.2762,0.2758,0.2756,0.2752,0.2749,0.2746,0.2743,0.274,0.2737,0.2735,0.2732,0.2728,0.2725,0.2722,0.2718,0.2717,0.2716,0.2715,0.2716,0.2716,0.2715,0.2715,0.2713,0.2713,0.2713,0.2713,0,0.2763,0.2761,0.2756,0.2752,0.2751,0.2749,0.2745,0.2743,0.274,0.2737,0.2736,0.2732,0.2728,0.2725,0.2719,0.2718,0.2714,0.2713,0.2716,0.2715,0.2714,0.2715,0.2711,0.2711,0.2711,0.2711,0.2711,0,0.2761,0.2759,0.2755,0.2753,0.2751,0.2748,0.2746,0.2743,0.2741,0.2736,0.2735,0.2731,0.2728,0.2722,0.2718,0.2714,0.2714,0.2713,0.2713,0.2714,0.2714,0.2714,0.2714,0.2713,0.2713,0.2713,0.2713,0,0.2758,0.2757,0.2754,0.2751,0.2749,0.2746,0.2743,0.2741,0.2738,0.2736,0.2732,0.273,0.2725,0.2721,0.2717,0.2715,0.2713,0.2713,0.2712,0.2713,0.2715,0.2714,0.2716,0.2713,0.2713,0.2713,0.2713,0.2713,0.2756,0.2754,0.2751,0.2748,0.2746,0.2744,0.2741,0.2739,0.2736,0.2732,0.2731,0.2728,0.2724,0.2719,0.2716,0.2714,0.2713,0.2713,0.2712,0.2712,0.2713,0.2715,0.2713,0.2713,0.2713,0.2713,0.2713,0,0.2753,0.2751,0.2748,0.2745,0.2743,0.2742,0.2739,0.2737,0.2734,0.2732,0.2729,0.2725,0.2722,0.2719,0.2715,0.2713,0.2713,0.2713,0.2713,0.2712,0.2713,0.2714,0.2713,0.2713,0.2713,0.2713,0.2713,0.2713,0.2751,0.2748,0.2747,0.2742,0.2741,0.2738,0.2736,0.2734,0.2732,0.2728,0.2725,0.2724,0.2721,0.2717,0.2714,0.2713,0.2712,0.2713,0.2712,0.2712,0.2712,0.2712,0.2713,0.2712,0.2712,0.2711,0.2711,0.2711]},{"header":{"parameterUnit":"m.s-1","parameterCategory":1,"la1":30.2991,"la2":30.254,"lo1":-89.0895,"lo2":-89.0444,"dy":0.0017,"dx":0.0017,"nx":28,"ny":28,"refTime":"2025-02-28T09:00:00:Z","depth":0,"parameterNumber":3,"parameterNumberName":"V-component_of_WINDS"},"data":[0,0,0,0,0,0,0,0,0,0,0,0,0,0,0,0,0,0,0,0,0,0,0,0,0,0,0,0,0,0,0,0,0,0,0,0,0,0,0,0,0,0,0,0,0,0,0,0,0,0,0,0,0,0,0,0,0,0,-0.9706,-0.9706,0,-0.9743,-0.9744,-0.9744,-0.9738,-0.9738,-0.9737,-0.9737,-0.9775,-0.9776,-0.9778,0,0,0,0,0,0,0,0,0,0,0,0,0,-0.963,-0.9631,-0.9706,-0.9706,-0.9707,-0.9743,-0.9744,-0.9744,-0.9739,-0.9738,-0.9737,-0.9736,-0.9774,-0.9776,-0.9778,0,0,0,0,0,0,0,0,0,0,0,0,0,-0.9665,-0.9632,-0.9706,-0.9708,-0.9709,-0.9743,-0.9744,-0.9744,-0.9739,-0.9738,-0.9737,-0.9736,-0.9774,-0.9776,-0.9778,-0.9812,0,0,-0.9786,-0.9787,0,0,0,0,0,0,0,0,-0.9663,-0.9667,-0.9707,-0.9708,-0.9709,-0.9735,-0.9731,-0.9767,-0.9739,-0.9727,-0.9737,-0.9735,-0.9762,-0.9766,-0.9775,-0.9814,-0.9816,-0.9786,-0.9788,-0.9789,-0.9789,0,0,0,0,0,0,0,-0.966,-0.9666,-0.9721,-0.9708,-0.9709,-0.9708,-0.9712,-0.9738,-0.975,-0.9728,-0.9728,-0.9733,-0.9763,-0.9773,-0.9776,-0.9816,-0.9786,-0.9788,-0.979,-0.9791,-0.9887,-0.9888,0,0,0,0,0,0,-0.9657,-0.9664,-0.9719,-0.9722,-0.9683,-0.971,-0.9714,-0.9728,-0.9749,-0.9752,-0.9733,-0.9732,-0.9769,-0.9773,-0.9777,-0.9819,-0.9789,-0.9791,-0.9792,-0.9886,-0.9887,-0.9888,0,0,0,0,0,0,-0.9655,-0.9662,-0.9718,-0.9693,-0.97,-0.9712,-0.9727,-0.9729,-0.9739,-0.9753,-0.9755,-0.9741,-0.9768,-0.9774,-0.9804,-0.982,-0.9792,-0.9794,-0.9884,-0.9886,-0.9888,-0.9903,0,0,0,0,0,0,-0.9653,-0.9661,-0.9674,-0.9693,-0.9701,-0.9744,-0.9728,-0.973,-0.9743,-0.9742,-0.9761,-0.9764,-0.9768,-0.98,-0.9806,-0.9823,-0.9796,-0.9883,-0.9885,-0.9887,-0.9901,-0.9905,-0.9908,0,0,0,0,0,-0.9651,-0.9677,-0.9675,-0.9682,-0.9717,-0.9745,-0.975,-0.9754,-0.9744,-0.9758,-0.9767,-0.9763,-0.9818,-0.9804,-0.981,-0.9828,-0.9882,-0.9885,-0.9887,-0.9899,-0.9904,-0.9908,0,0,0,0,0,0,-0.966,-0.9679,-0.9677,-0.9711,-0.9726,-0.9744,-0.9761,-0.9759,-0.9778,-0.9776,-0.9781,-0.9785,-0.9816,-0.9825,-0.9809,-0.9863,-0.9848,-0.9852,-0.9856,-0.986,-0.9864,-0.9861,-0.9798,0,0,0,0,0,-0.9665,-0.9686,-0.9702,-0.973,-0.9738,-0.9748,-0.976,-0.9763,-0.9779,-0.9785,-0.9797,-0.9813,-0.9834,-0.9847,-0.9867,-0.9902,-0.9907,-0.9918,-0.9921,-0.9924,-0.9928,-0.9948,-0.9953,-0.9896,-0.9896,-0.9896,0,0,-0.9678,-0.9691,-0.9704,-0.9732,-0.9744,-0.9766,-0.9754,-0.9777,-0.9793,-0.9789,-0.9819,-0.9828,-0.9846,-0.9879,-0.9894,-0.9887,-0.9944,-0.9927,-0.993,-0.9932,-0.9951,-0.9956,-0.9961,-0.9898,-0.9898,-0.9897,0,0,-0.9711,-0.9723,-0.9748,-0.9761,-0.978,-0.9787,-0.9793,-0.9811,-0.9817,-0.9847,-0.9844,-0.9864,-0.9899,-0.9913,-0.9924,-0.9964,-0.9961,-0.997,-0.9989,-1.0009,-1.0013,-1.0017,-1.0032,-1.0037,-0.9974,-0.9974,-0.9974,0,-0.9724,-0.9757,-0.9761,-0.9785,-0.9798,-0.9795,-0.9821,-0.9833,-0.9858,-0.9867,-0.9859,-0.9904,-0.9916,-0.9953,-0.9963,-0.9972,-0.9979,-0.9968,-1.0012,-1.0016,-1.002,-1.0034,-1.004,-0.9975,-0.9975,-0.9974,-0.9974,0,-0.9772,-0.9795,-0.9812,-0.9837,-0.9851,-0.9876,-0.9885,-0.9899,-0.99,-0.9908,-0.9939,-0.9953,-0.9977,-0.9985,-0.9986,-1.0022,-1.0018,-1.0011,-0.9997,-1.0026,-1.004,-1.0045,-0.9976,-0.9976,-0.9976,-0.9975,0,0,-0.9812,-0.9839,-0.9845,-0.9857,-0.9878,-0.9896,-0.992,-0.9943,-0.9956,-0.9973,-0.9995,-1.0025,-1.0019,-1.0032,-1.0035,-1.0052,-1.0084,-1.0044,-1.0044,-1.0051,-1.0125,-1.0131,-1.0137,-1.0082,-1.0083,-1.0084,-1.0124,0,-0.9848,-0.9892,-0.9897,-0.9936,-0.9958,-0.9956,-0.9978,-0.9993,-1.0001,-1.0021,-1.0029,-1.0051,-1.0042,-1.005,-1.0066,-1.0076,-1.0099,-1.0073,-1.0102,-1.0103,-1.0098,-1.0144,-1.0149,-1.0186,-1.0129,-1.013,-1.0131,0,-0.9896,-0.9915,-0.9957,-0.9976,-0.9985,-1.0004,-1.0026,-1.0045,-1.0063,-1.0067,-1.0082,-1.0083,-1.0109,-1.0094,-1.013,-1.0113,-1.0125,-1.0131,-1.0133,-1.0136,-1.0119,-1.0149,-1.0198,-1.0204,-1.0139,-1.0138,-1.0138,0,-0.9922,-0.9958,-0.9988,-0.9998,-1.002,-1.0034,-1.0044,-1.0061,-1.0075,-1.0094,-1.0103,-1.0125,-1.0137,-1.0154,-1.0161,-1.0149,-1.0197,-1.0182,-1.0202,-1.0202,-1.0213,-1.0212,-1.0266,-1.022,-1.0219,-1.0219,-1.0219,0,-0.9963,-0.9988,-1.0,-1.0018,-1.0047,-1.0053,-1.0081,-1.0091,-1.0106,-1.0127,-1.0126,-1.0146,-1.0153,-1.0174,-1.0179,-1.0209,-1.0214,-1.0219,-1.022,-1.0219,-1.0219,-1.0227,-1.0225,-1.0221,-1.022,-1.022,-1.022,0,-0.9997,-1.0006,-1.0038,-1.0057,-1.0063,-1.0083,-1.01,-1.0118,-1.0126,-1.0151,-1.0158,-1.017,-1.0195,-1.0203,-1.0232,-1.0236,-1.027,-1.0269,-1.0265,-1.0265,-1.0285,-1.0283,-1.0346,-1.0355,-1.0303,-1.0303,-1.0303,0,-1.0022,-1.0042,-1.0063,-1.0077,-1.0088,-1.011,-1.0124,-1.0131,-1.0146,-1.0168,-1.0184,-1.0208,-1.0227,-1.0266,-1.0278,-1.03,-1.03,-1.0321,-1.0303,-1.0302,-1.0301,-1.03,-1.0303,-1.0324,-1.0324,-1.0325,-1.0325,0,-1.0066,-1.007,-1.0091,-1.0113,-1.013,-1.0148,-1.0166,-1.0177,-1.0186,-1.0203,-1.0228,-1.0244,-1.0274,-1.0298,-1.0321,-1.0332,-1.033,-1.0331,-1.0337,-1.0336,-1.0333,-1.0336,-1.0274,-1.0329,-1.0329,-1.0328,-1.0328,-1.0328,-1.0097,-1.0115,-1.0133,-1.0157,-1.0171,-1.0187,-1.0205,-1.0216,-1.0237,-1.0262,-1.0265,-1.0292,-1.031,-1.0341,-1.0353,-1.0374,-1.0368,-1.0377,-1.0379,-1.0381,-1.0383,-1.0329,-1.0378,-1.0378,-1.0378,-1.0378,-1.0378,0,-1.0142,-1.0154,-1.0175,-1.02,-1.0219,-1.0216,-1.0235,-1.0251,-1.0275,-1.0292,-1.0312,-1.0341,-1.0364,-1.0378,-1.0402,-1.0416,-1.0417,-1.0423,-1.0422,-1.0424,-1.0386,-1.0379,-1.0422,-1.0422,-1.0422,-1.0422,-1.0422,-1.0422,-1.0168,-1.0198,-1.0204,-1.0242,-1.0254,-1.028,-1.0292,-1.0307,-1.0321,-1.0354,-1.0373,-1.0382,-1.0398,-1.0423,-1.0445,-1.0448,-1.0458,-1.0464,-1.0467,-1.0432,-1.0427,-1.0423,-1.0416,-1.0466,-1.0466,-1.0504,-1.0504,-1.0504]}]]